Back to catalog

COSMOS 2251 DEB

AliveVLEO
NORAD 35442·DEBRIS·🇷🇺 Russia

Launched Jun 16, 1993 from Plesetsk Cosmodrome

Loading…

Next Passes (next 24 hours)

TLE

FreshSource: Space-Track

Epoch: Sep 14, 2026, 00:25 UTC

1 35442U 93036AKL 26257.01777354  .00015524  00000-0  14005-2 0  9994
2 35442  74.0199 267.4627 0007680 270.3122  89.7183 14.95515277914547

Track COSMOS 2251 DEB in real time with AllMySat

Download on the App Store